Header for Extended Forecast Station List Page

Search by: ID | Name | Date | Parm | Value | Avg | % Avg
Sort by: ID | Name | Date | Parm | Value | Avg | % Avg

Enter search or view all records.

Click on id for station plot
#IDNameDateParmValueAvg% Avg
0HWRI1BIG LOST-AT HOWELL RANCH NEAR CHILLY05-21-2018DISCHARGE (KAF)11114377
1MACI1BIG LOST-MACKAY RESERVOIR NEAR MACKAY05-21-2018INFLOW (KAF)10214272
2HALI1BIG WOOD-AT HAILEY05-21-2018DISCHARGE (KAF)16418390
3MAGI1BIG WOOD-MAGIC DAM05-21-2018INFLOW (KAF)10613181
4BITM8BITTERROOT-NEAR MISSOULA05-21-2018DISCHARGE (KAF)1152944122
5BONM8BLACKFOOT-NEAR BONNER05-21-2018DISCHARGE (KAF)945600158
6BIGI1BOISE-AT GLENWOOD BRIDGE05-21-2018DISCHARGE (KAF)516330156
7LUCI1BOISE-LUCKY PEAK DAM05-21-2018INFLOW (KAF)1111MM
8PARI1BOISE-NEAR PARMA05-21-2018DISCHARGE (KAF)493296167
9HOTI1BRUNEAU-NEAR HOT SPRINGS05-21-2018DISCHARGE (KAF)5310053
10BULO3BULLY CREEK-BULLY CREEK DAM05-21-2018INFLOW (KAF)000
11BUDW1BUMPING-BUMPING LAKE DAM05-21-2018INFLOW (KAF)598073
12CHDW1CHELAN-LAKE CHELAN DAM05-21-2018INFLOW (KAF)75881094
13ABOM8CLARK FORK-ABOVE MISSOULA05-21-2018DISCHARGE (KAF)17851081165
14DLGM8CLARK FORK-AT DEER LODGE05-21-2018DISCHARGE (KAF)13059222
15SRGM8CLARK FORK-AT ST REGIS05-21-2018DISCHARGE (KAF)35912697133
16BELM8CLARK FORK-BELOW MISSOULA05-21-2018DISCHARGE (KAF)29482065143
17CABI1CLARK FORK-CABINET GORGE DAM05-21-2018INFLOW (KAF)93937303129
18NOXM8CLARK FORK-NOXON RAPIDS DAM05-21-2018INFLOW (KAF)85666847125
19DRMM8CLARK FORK-NR DRUMMOND05-21-2018DISCHARGE (KAF)380MM
20CLUW1CLE ELUM-CLE ELUM LAKE05-21-2018INFLOW (KAF)19225376
21ORFI1CLEARWATER-AT OROFINO05-21-2018DISCHARGE (KAF)31102780112
22SPDI1CLEARWATER-AT SPALDING05-21-2018DISCHARGE (KAF)52104122126
23COEI1COEUR D ALENE-COEUR D ALENE LAKE05-21-2018INFLOW (KAF)1011102099
24CIBW1COLUMBIA-AT INTL BOUNDARY05-21-2018DISCHARGE (KAF)35772MM
25BONO3COLUMBIA-BONNEVILLE DAM05-21-2018INFLOW (KAF)5550350613110
26CHJW1COLUMBIA-CHIEF JOSEPH DAM05-21-2018INFLOW (KAF)3437229067118
27GCDW1COLUMBIA-GRAND COULEE DAM05-21-2018INFLOW (KAF)383773860499
28JDAO3COLUMBIA-JOHN DAY DAM05-21-2018INFLOW (KAF)547795513399
29MCDW1COLUMBIA-MCNARY DAM05-21-2018INFLOW (KAF)5391154090100
30PRWW1COLUMBIA-PRIEST RAPIDS DAM05-21-2018INFLOW (KAF)3931439242100
31RRHW1COLUMBIA-ROCKY REACH DAM05-21-2018INFLOW (KAF)3801731807120
32TDAO3COLUMBIA-THE DALLES DAM05-21-2018INFLOW (KAF)5507249474111
33WANW1COLUMBIA-WANAPUM DAM05-21-2018INFLOW (KAF)3929038405102
34WELW1COLUMBIA-WELLS DAM05-21-2018INFLOW (KAF)3666831161118
35DEDI1DEADWOOD-NEAR LOWMAN05-21-2018INFLOW (KAF)599661
36MODO3DESCHUTES-AT MOODY NR BIGGS05-21-2018DISCHARGE (KAF)1061114693
37ARDW1ENTIAT-NEAR ARDENVOIR05-21-2018DISCHARGE (KAF)14515792
38CHEI1FALL RIVER-NEAR CHESTER05-21-2018DISCHARGE (KAF)22022399
39CFMM8FLATHEAD-AT COLUMBIA FALLS05-21-2018DISCHARGE (KAF)36083197113
40KERM8FLATHEAD-KERR DAM05-21-2018INFLOW (KAF)44153966111
41TRYO3GRANDE RONDE-TROY05-21-2018DISCHARGE (KAF)44666867
42REXI1HENRYS FORK-AT REXBURG05-21-2018DISCHARGE (KAF)50855791
43ANTI1HENRYS FORK-AT ST. ANTHONY05-21-2018DISCHARGE (KAF)41147387
44IPDI1HENRYS FORK-ISLAND PARK DAM05-21-2018INFLOW (KAF)18218698
45HODO3HOOD-NEAR TUCKER BRIDGE05-21-2018DISCHARGE (KAF)10713082
46SERO3JOHN DAY-AT SERVICE CK05-21-2018DISCHARGE (KAF)9927935
47KADW1KACHESS-KACHESS DAM05-21-2018INFLOW (KAF)425675
48LAUW1KETTLE-AT LAURIER05-21-2018DISCHARGE (KAF)1037106697
49PITW1KLICKITAT-NEAR PITT05-21-2018DISCHARGE (KAF)25531182
50BFEI1KOOTENAI-AT BONNERS FERRY05-21-2018STAGE (FT)MMM
51LEOI1KOOTENAI-AT LEONIA05-21-2018DISCHARGE (KAF)4461462496
52LYDM8KOOTENAI-LIBBY DAM05-21-2018INFLOW (KAF)52115208100
53LWRI1LITTLE WOOD-LITTLE WOOD DAM05-21-2018INFLOW (KAF)284563
54BERO3MALHEUR-AGENCY VALLEY DAM05-21-2018INFLOW (KAF)141597
55VALO3MALHEUR-NEAR VALE05-21-2018DISCHARGE (KAF)113234
56WRMO3MALHEUR-WARM SPRINGS DAM05-21-2018INFLOW (KAF)2630
57MYKO3MCKAY CREEK-NEAR PILOT ROCK05-21-2018DISCHARGE (KAF)1254
58PATW1METHOW-NEAR PATEROS05-21-2018DISCHARGE (KAF)753637118
59WGCM8MF FLATHEAD-NEAR WEST GLACIER05-21-2018DISCHARGE (KAF)11901191100
60CLFW1NACHES-NEAR CLIFFDEL05-21-2018DISCHARGE (KAF)18623978
61NACW1NACHES-NEAR NACHES05-21-2018DISCHARGE (KAF)25735373
62DWRI1NF CLEARWATER-DWORSHAK DAM05-21-2018INFLOW (KAF)15021463103
63FCFM8NF FLATHEAD-NEAR COLUMBIA FALLS05-21-2018DISCHARGE (KAF)1215123998
64MONO3NF JOHN DAY-AT MONUMENT05-21-2018DISCHARGE (KAF)8520142
65CSDI1NF PAYETTE-CASCADE DAM05-21-2018INFLOW (KAF)18230859
66TONW1OKANOGAN-NEAR TONASKET05-21-2018DISCHARGE (KAF)15641138137
67OWYO3OWYHEE-OWYHEE DAM05-21-2018INFLOW (KAF)509851
68EMMI1PAYETTE-NEAR EMMETT05-21-2018DISCHARGE (KAF)67386678
69ALFW1PEND OREILLE-ALBENI FALLS DAM05-21-2018INFLOW (KAF)100858175123
70HOPI1PEND OREILLE-PEND OREILLE LAKE NR HOPE05-21-2018LAKE ELEVATION (FT)MMM
71PIHI1PORTNEUF-AT POCATELLO05-21-2018DISCHARGE (KAF)3735107
72PRTI1PRIEST-NEAR PRIEST RIVER05-21-2018DISCHARGE (KAF)521479109
73RCCM8ROCK CREEK-NEAR CLINTON05-21-2018DISCHARGE (KAF)374213176
74WHBI1SALMON-AT WHITEBIRD05-21-2018DISCHARGE (KAF)4367454496
75ARAI1SF BOISE-ANDERSON RANCH DAM05-21-2018INFLOW (KAF)17830658
76HHWM8SF FLATHEAD-HUNGRY HORSE DAM05-21-2018INFLOW (KAF)17251344128
77PLDI1SF SNAKE-PALISADES DAM05-21-2018INFLOW (KAF)31312757114
78SIFI1SNAKE-AB EAGLE ROCK NR IDAHO FALLS05-21-2018DISCHARGE (KAF)24012152112
79AFRI1SNAKE-AMERICAN FALLS RESERVOIR05-21-2018INFLOW (KAF)21071802117
80SNAI1SNAKE-AT BLACKFOOT05-21-2018DISCHARGE (KAF)15761299121
81MILI1SNAKE-AT MILNER05-21-2018DISCHARGE (KAF)424118360
82WEII1SNAKE-AT WEISER05-21-2018DISCHARGE (KAF)35213533100
83SWAI1SNAKE-BELOW SWAN FALLS05-21-2018DISCHARGE (KAF)20282003101
84BRNI1SNAKE-BROWNLEE DAM05-21-2018INFLOW (KAF)3709374699
85IHDW1SNAKE-ICE HARBOR DAM05-21-2018INFLOW (KAF)1385313642102
86JLKW4SNAKE-JACKSON LAKE AT DAM05-21-2018INFLOW (KAF)62066693
87LGSW1SNAKE-LITTLE GOOSE DAM05-21-2018INFLOW (KAF)1381913651101
88LGDW1SNAKE-LOWER GRANITE DAM05-21-2018INFLOW (KAF)1383413646101
89LMNW1SNAKE-LOWER MONUMENTAL DAM05-21-2018INFLOW (KAF)1385313685101
90ALPW4SNAKE-NEAR ALPINE05-21-2018DISCHARGE (KAF)24742024122
91ANAW1SNAKE-NEAR ANATONE05-21-2018DISCHARGE (KAF)8615942391
92BFTI1SNAKE-NEAR BLACKFOOT05-21-2018DISCHARGE (KAF)15561186131
93HEII1SNAKE-NEAR HEISE05-21-2018DISCHARGE (KAF)32372921111
94JKSW4SNAKE-NEAR JACKSON05-21-2018DISCHARGE (KAF)21311638130
95SHYI1SNAKE-NEAR SHELLEY05-21-2018DISCHARGE (KAF)21661829118
96LLKW1SPOKANE-AT LONGLAKE05-21-2018INFLOW (KAF)1403150193
97SPOW1SPOKANE-AT SPOKANE05-21-2018DISCHARGE (KAF)1191MM
98SJMI1ST JOE-AT ST MARIES05-21-2018STAGE (FT)MMM
99SATI1ST MARIES-NEAR SANTA05-21-2018DISCHARGE (KAF)474996
100STRM8ST. REGIS-NEAR ST. REGIS05-21-2018DISCHARGE (KAF)140130107
101TNAW1TEANAWAY-BELOW FORKS05-21-2018DISCHARGE (KAF)324275
102TEAI1TETON-NEAR ST. ANTHONY05-21-2018DISCHARGE (KAF)340314108
103RILW1TIETON-RIMROCK LAKE NEAR RIMROCK05-21-2018INFLOW (KAF)14015094
104PDTO3UMATILLA-AT PENDLETON05-21-2018DISCHARGE (KAF)243470
105GIBO3UMATILLA-NEAR GIBBON05-21-2018DISCHARGE (KAF)192478
106UMAO3UMATILLA-NEAR UMATILLA05-21-2018DISCHARGE (KAF)136228
107TCHW1WALLA WALLA-NEAR TOUCHET05-21-2018DISCHARGE (KAF)3425138
108WSRI1WEISER-NEAR WEISER05-21-2018DISCHARGE (KAF)9516358
109PESW1WENATCHEE-AT PESHASTIN05-21-2018DISCHARGE (KAF)868105183
110UNDW1WHITE SALMON-NEAR UNDERWOOD05-21-2018DISCHARGE (KAF)20222490
111RIDI1WILLOW CREEK-RIRIE DAM05-21-2018INFLOW (KAF)1615102
112EASW1YAKIMA-AT EASTON05-21-2018DISCHARGE (KAF)648576
113KIOW1YAKIMA-AT KIONA05-21-2018DISCHARGE (KAF)52059288
114UMTW1YAKIMA-AT UMTANUM05-21-2018DISCHARGE (KAF)77178998
115KEDW1YAKIMA-KEECHELUS LAKE05-21-2018INFLOW (KAF)476375
116PARW1YAKIMA-NEAR PARKER05-21-2018DISCHARGE (KAF)20025778